User: anonymous   Login
Location: Unspecified
(0.0000°N, 0.0000°E)
Time: 07:15:42
(UTC+00:00)
Language:

S80/T - Orbit

View from above orbital plane
View from above orbital plane
View from above satellite
View from above satellite

Ground track
Ground track

The orbit data is extracted from the following two-line orbital elements,

1 22078U 92052C   17178.91129814 -.00000040 +00000-0 +89193-4 0  9995
2 22078 066.0859 294.5820 0011338 324.1548 035.8709 12.86787311168874
Epoch (UTC): 27 June 2017 21:52:16
Eccentricity: 0.0011338
inclination: 66.0859°
perigee height: 1305 km
apogee height: 1323 km
right ascension of ascending node: 294.5820°
argument of perigee: 324.1548°
revolutions per day: 12.86787311
mean anomaly at epoch: 35.8709°
orbit number at epoch: 16887

The dashed part of the orbit path shows where the satellite is in the earth's shadow,  

DLR